Flag for U.S.A. Weather past 2 weeks in Fargo, North Dakota, U.S.A.

Now
17 °F

Sunny.


Feels Like: 5 °F
Forecast: -9 / 9 °F
Wind: 10 mph from Southwest

Location: Hector International Airport

Current Time: Feb 27, 2015 at 5:38:26 PM

Latest Report: Feb 27, 2015 at 4:53 PM


Visibility: 10 mi

Pressure: 30.47 "Hg

Humidity: 49%

Dew point: 1 °F

Location of FargoLocation

Historic Weather in Fargo — Graph

°F

Fargo temperature yesterday

Maximum temperature yesterday: 8 °F (at 3:53 PM)
Minimum temperature yesterday: -12 °F (at 5:53 AM)
Average temperature yesterday: -2 °F

Past Weeks' High & Low Weather Summary

 TemperatureHumidityPressure
High32 °F (Feb 24, 3:53 AM)84% (Feb 13, 12:53 AM)30.91 "Hg (Feb 13, 12:53 AM)
Low-18 °F (Feb 19, 5:53 AM)49% (Feb 27, 2:53 PM)29.70 "Hg (Feb 20, 10:03 AM)
Average4 °F69%30.32 "Hg
* Reported Feb 12 3:53 PM — Feb 27 3:53 PM, Fargo, Weather by CustomWeather, © 2015

Note: Actual official high and low records may vary slightly from our data, if they occured in-between our weather recording intervals... More about our weather records

Advertising

Fargo weather history for previous 24 hours

 ConditionsComfort  
Time TempWeatherWind HumidityBarometerVisibility
3:53 PM
Fri, Feb 27
17 °FSunny.8 mph49%30.49 "Hg10 mi
2:53 PM16 °FSunny.13 mph49%30.50 "Hg10 mi
1:53 PM15 °FSunny.16 mph56%30.52 "Hg10 mi
12:53 PM12 °FSunny.12 mph61%30.55 "Hg10 mi
11:53 AM9 °FSunny.9 mph64%30.57 "Hg10 mi
10:53 AM4 °FSunny.8 mph66%30.57 "Hg10 mi
9:53 AM0 °FSunny.7 mph65%30.58 "Hg10 mi
8:53 AM-4 °FSunny.9 mph68%30.58 "Hg10 mi
7:53 AM-9 °FSunny.8 mph74%30.58 "Hg10 mi
6:53 AM-11 °FClear.6 mph74%30.58 "Hg10 mi
5:53 AM-11 °FClear.8 mph74%30.58 "Hg10 mi
4:53 AM-12 °FClear.7 mph74%30.58 "Hg10 mi
3:53 AM-11 °FClear.7 mph74%30.57 "Hg10 mi
2:53 AM-7 °FClear.5 mph75%30.57 "Hg10 mi
1:53 AM-7 °FClear.3 mph75%30.58 "Hg10 mi
12:53 AM-6 °FClear.7 mph71%30.58 "Hg10 mi
11:53 PM
Thu, Feb 26
-5 °FClear.7 mph72%30.59 "Hg10 mi
10:53 PM-4 °FClear.8 mph71%30.60 "Hg10 mi
9:53 PM-2 °FClear.9 mphN/A30.61 "Hg10 mi
8:53 PM1 °FClear.9 mph65%30.61 "Hg10 mi
7:53 PM2 °FClear.10 mph65%30.62 "Hg10 mi
6:53 PM3 °FClear.8 mph66%30.61 "Hg10 mi
5:53 PM6 °FPassing clouds.6 mph63%30.62 "Hg10 mi
Weather by CustomWeather, © 2015

See weather overviewHow to use our weather pages